Location: Unspecified
(35.7250°N, 0.0000°E)
Time: 06:32:52
(UTC+00:00)

Explorer 7 - Pass Details

Date: 18 June 2019
Orbit: 485 x 680 km, 50.3° (Epoch: 13 October)

Event Time Altitude Azimuth Distance (km) Brightness Sun altitude
Rises 18:22:52 0° 288° (WNW) 3,034 13.0 9.3°
Reaches altitude 10° 18:26:43 10° 258° (WSW) 2,108 10.9 8.6°
Maximum altitude 18:28:33 12° 236° (SW) 1,964 10.2 8.2°
Drops below altitude 10° 18:30:23 10° 213° (SSW) 2,086 9.9 7.9°
Sets 18:34:09 0° 183° (S) 2,963 10.3 7.2°
